This is the latest recevied weather packets stored in our database for station/object SQ6ELQ-11. If no packets are shown the sender has not sent any weather packets the latest 10 day(s).
| Time | Temp. | Humidity | Pressure | Rain* | Wind** | Luminosity | Snow |
|---|---|---|---|---|---|---|---|
| 1777291266 | 13.33° C | 28% | 1022.4 hPa | 0 mm | - | - | - |
| 1777289117 | 12.78° C | 28% | 1022.5 hPa | 0 mm | - | - | - |
| 1777288006 | 12.22° C | 28% | 1022.6 hPa | 0 mm | - | - | - |
| 1777285759 | 11.11° C | 28% | 1022.7 hPa | 0 mm | - | - | - |
| 1777284676 | 10.56° C | 28% | 1023 hPa | 0 mm | - | - | - |
| 1777282608 | 10° C | 27% | 1023.1 hPa | 0 mm | - | - | - |
| 1777281518 | 10° C | 27% | 1023.2 hPa | 0 mm | - | - | - |
| 1777278361 | 8.89° C | 30% | 1023.4 hPa | 0 mm | - | - | - |
| 1777277256 | 8.33° C | 31% | 1023.5 hPa | 0 mm | - | - | - |
| 1777276164 | 7.78° C | 34% | 1023.3 hPa | 0 mm | - | - | - |
| 1777275120 | 7.78° C | 34% | 1023.3 hPa | 0 mm | - | - | - |
| 1777273996 | 7.22° C | 34% | 1023.3 hPa | 0 mm | - | - | - |
| 1777272879 | 6.11° C | 41% | 1023.5 hPa | 0 mm | - | - | - |
| 1777271825 | 5.56° C | 46% | 1023.5 hPa | 0 mm | - | - | - |
| 1777270689 | 3.89° C | 53% | 1023.4 hPa | 0 mm | - | - | - |
| 1777269551 | 2.22° C | 54% | 1023.5 hPa | 0 mm | - | - | - |
| 1777268516 | 1.11° C | 55% | 1023.5 hPa | 0 mm | - | - | - |
| 1777267544 | 0° C | 56% | 1023.4 hPa | 0 mm | - | - | - |
| 1777266484 | -1.67° C | 57% | 1023.4 hPa | 0 mm | - | - | - |
| 1777265381 | -2.78° C | 57% | 1023.4 hPa | 0 mm | - | - | - |
| 1777264311 | -3.33° C | 59% | 1023.2 hPa | 0 mm | - | - | - |
| 1777263222 | -3.33° C | 59% | 1023.2 hPa | 0 mm | - | - | - |
| 1777262171 | -3.33° C | 59% | 1023.3 hPa | 0 mm | - | - | - |
| 1777261011 | -3.33° C | 60% | 1023.1 hPa | 0 mm | - | - | - |
| 1777259976 | -3.89° C | 60% | 1023.2 hPa | 0 mm | - | - | - |
* Rain latest hour (hover to see other rain measurements)
** Current wind speed in m/s (hover to see current wind gust speed)